Location: Lhotka
(49.9072°N, 13.7301°E)
Time: 07:03:44
(UTC+00:00)

Daily predictions for brighter satellites

Satellite Brightness Start Highest point End
(mag) Time Altitude Azimuth Time Altitude Azimuth Time Altitude Azimuth
PAYLOAD B 4.4 19:13:29 10° SSE 19:19:00 82° WSW 19:24:36 10° NNW
MOS 1 4.5 19:14:47 10° SSE 19:20:28 81° WSW 19:26:12 10° NNW
Sich 1 Rocket 4.5 19:17:49 10° SSW 19:22:05 53° WNW 19:26:25 10° N
Cosmos 1626 Rocket 4.1 19:19:45 10° N 19:23:55 42° ENE 19:28:06 10° SE
Ariane Rocket 4.3 19:19:54 10° ESE 19:24:00 25° ENE 19:28:06 10° N
ATLAS 3B R/B 4.5 19:18:20 10° NW 19:24:46 30° WSW 19:30:53 10° SSW
Cosmos 2278 4.4 19:19:23 10° NNW 19:24:53 45° NE 19:30:19 10° SE
Cosmos 1782 2.5 19:24:47 10° S 19:28:18 89° ESE 19:31:51 10° N
Spot 2 Rocket 3.6 19:24:05 10° SSE 19:29:01 63° ENE 19:34:01 10° N
SL-16 R/B 2.5 19:23:26 10° NNW 19:29:03 58° NE 19:34:38 10° SE
Cosmos 1607 4.1 19:23:56 10° SW 19:30:07 85° NW 19:36:26 10° NE
ERS-1 Rocket 3.4 19:27:13 10° S 19:32:11 64° WSW 19:37:12 10° NNW
SPOT 3 Rocket 4.3 19:29:17 10° SE 19:33:58 37° ENE 19:38:40 10° N
Meteor 1-27 4.4 19:28:37 10° SSW 19:34:15 83° WNW 19:39:52 10° N
MOS 1-B 4.5 19:31:10 10° SSE 19:36:55 69° ENE 19:42:42 10° NNW
Cosmos 1980 Rocket 3.8 19:38:01 10° NW 19:42:58 31° WSW 19:47:52 10° SSW
Cosmos 2061 Rocket 4.0 19:37:15 10° S 19:43:26 72° E 19:49:44 10° NNE
CZ-4 R/B 3.2 19:41:37 10° SSW 19:44:41 26° W 19:47:47 10° NW
USA 186 1.4 19:42:50 11° SSE 19:45:26 61° ENE 19:48:10 10° N
Cosmos 2228 3.1 19:41:59 10° SSW 19:46:05 76° WNW 19:50:12 10° N
USA 290 4.3 19:45:43 11° ESE 19:46:22 11° E 19:47:28 10° E
COSMOS 2406 3.3 19:41:14 10° S 19:46:51 59° ESE 19:52:29 10° NE
SL-08 R/B 3.3 19:42:48 10° NNE 19:47:39 79° ESE 19:52:22 10° SSW
CZ-4B R/B 4.2 19:43:25 11° SE 19:47:41 38° ENE 19:52:10 10° N
Cosmos 1933 3.9 19:45:12 10° SSE 19:48:40 35° E 19:52:11 10° NNE
Cosmos 1743 4.4 19:46:44 10° NW 19:49:13 23° W 19:51:41 10° SSW
ISS -3.3 19:47:07 10° W 19:50:27 64° N 19:53:46 10° ENE
Cosmos 1461 2.7 19:47:17 10° SSW 19:50:52 49° SE 19:54:26 10° NE
Cosmos 1455 Rocket 4.2 19:46:42 10° SSW 19:50:55 46° WNW 19:55:10 10° N
Cosmos 1992 Rocket 4.0 19:45:55 10° SSW 19:51:06 81° ESE 19:56:21 10° NNE
Terra 2.8 19:48:10 10° S 19:52:41 46° W 19:57:13 10° NNW
Meteor 1-20 Rocket 4.3 19:48:09 10° N 19:53:45 70° ENE 19:59:21 10° SSE
Okean O Rocket 1.6 19:52:54 10° SSE 19:57:12 81° WSW 20:01:31 10° NNW
Cosmos 1777 Rocket 4.5 19:53:49 10° NNW 19:58:55 49° ENE 20:03:12 14° SE
Cosmos 2333 Rocket 2.3 19:53:40 10° NNW 19:59:24 82° ENE 20:04:29 14° SSE
Cosmos 1544 Rocket 3.5 20:00:17 10° S 20:04:35 72° E 20:08:55 10° NNE
NOSS 3-3 (A) 3.9 19:59:44 10° SW 20:04:59 78° NW 20:11:23 10° NE
Cosmos 1437 Rocket 2.5 20:03:34 10° S 20:07:04 63° E 20:10:39 10° NNE
Helios 1A Rocket 4.4 20:06:07 10° N 20:08:53 28° WNW 20:11:38 10° SW
Cosmos 2360 Rocket 2.4 20:03:48 10° NNW 20:09:27 61° ENE 20:13:59 16° SE
Okean 1-7 Rocket 4.2 20:05:37 10° N 20:09:53 41° ENE 20:13:00 17° SE
CZ-4B R/B 4.5 20:07:49 10° SSW 20:13:05 39° W 20:18:20 10° NNW
EP 1 4.2 20:11:39 10° NW 20:14:15 84° SW 20:15:44 24° SE
Cosmos 1891 Rocket 4.4 20:10:40 10° S 20:16:43 73° E 20:22:45 10° NNE
Okean-O 3.3 20:15:11 10° S 20:19:25 50° W 20:23:42 10° NNW
Cosmos 2333 4.5 20:13:44 10° NNW 20:19:25 62° ENE 20:23:47 17° SE
Cosmos 1486 Rocket 4.0 20:14:37 10° NNW 20:19:55 79° ENE 20:23:55 18° SSE
Cosmos 1758 Rocket 4.1 20:17:14 10° NNW 20:21:35 58° W 20:25:51 10° S
Cosmos 2219 Rocket 2.7 20:16:37 10° NNW 20:22:09 50° NE 20:26:24 17° SE
Cosmos 909 Rocket 4.4 20:15:56 10° SW 20:22:12 71° NW 20:28:50 10° NE
CZ-2C R/B 2.6 20:21:09 24° ESE 20:22:20 38° ENE 20:24:57 10° N
DNEPR-1 R/B 4.5 20:24:32 10° NW 20:30:01 73° SW 20:34:56 19° SSE
USA 245 4.4 20:25:40 13° S 20:30:55 76° WSW 20:36:25 10° NNW
Nadezhda 4 Rocket 4.0 20:24:48 10° N 20:30:55 66° ENE 20:35:27 19° SSE
Cosmos 540 Rocket 4.2 20:28:07 19° SSE 20:30:59 33° ESE 20:35:33 10° NE
Meteor 1-25 Rocket 4.3 20:25:25 10° NNW 20:31:05 81° W 20:35:41 16° S
IRS-1C Rocket 4.1 20:27:08 17° SSE 20:31:14 84° ENE 20:36:32 10° NNW
Cosmos 1825 Rocket 3.7 20:29:58 10° N 20:34:17 59° ENE 20:36:52 23° SSE
Cosmos 1805 2.7 20:31:35 10° N 20:34:52 89° ENE 20:36:34 26° S
Cosmos 220 Rocket 3.8 20:33:08 10° SSW 20:37:11 87° WNW 20:41:19 10° NNE
NOSS 3-3 (C) 4.4 20:32:20 10° WSW 20:37:39 61° NW 20:44:07 10° NE
Meteor 2-10 4.2 20:33:01 10° N 20:38:48 79° ENE 20:42:50 20° SSE
Cosmos 1953 Rocket 4.2 20:36:53 10° N 20:41:01 41° ENE 20:43:09 24° SE
Helios 1A 4.4 20:38:53 10° NE 20:41:45 19° E 20:42:24 19° ESE
Cosmos 2322 Rocket 2.3 20:36:17 10° NNW 20:41:58 78° WSW 20:45:49 21° SSE
RESURS DK-1 4.3 20:39:42 10° N 20:42:46 21° NE 20:45:33 11° E
Cosmos 1602 Rocket 4.0 20:41:18 10° NNW 20:45:32 57° W 20:48:44 17° S
USA 306 3.3 20:44:29 10° WNW 20:46:40 23° N 20:47:38 16° NE
Cosmos 2082 Rocket 4.1 20:42:11 10° WSW 20:47:19 33° NW 20:52:28 10° NNE
NOSS 3-4 (A) 4.0 20:43:01 10° NW 20:49:40 68° SW 20:55:06 21° SSE
NOSS 3-4 (C) 4.0 20:43:39 10° NW 20:50:19 68° SW 20:55:45 21° SSE
Cosmos 1707 3.5 20:52:04 22° E 20:52:04 22° E 20:54:09 10° NE
CZ-4B R/B 3.5 20:49:58 19° SSW 20:52:02 40° W 20:55:21 10° NNW
Cosmos 2026 Rocket 4.3 20:46:53 10° N 20:53:11 58° ENE 20:57:08 23° SSE
Cosmos 2058 Rocket 4.0 20:53:53 25° ESE 20:55:15 30° E 20:59:03 10° NNE
Cosmos 2151 4.5 20:52:03 10° NNW 20:55:40 30° W 20:59:05 11° SSW
Cosmos 2098 Rocket 3.2 20:53:24 14° SSW 20:57:23 73° W 21:01:27 10° N
Cosmos 1076 Rocket 3.4 20:54:04 10° N 20:58:20 76° E 21:00:20 30° SSE
Cosmos 44 3.7 20:54:06 10° NW 20:59:30 67° NE 21:02:45 24° SE
Cosmos 2237 Rocket 4.1 20:55:38 10° N 20:59:58 22° NE 21:04:15 10° E
Ariane Rocket 3.5 20:59:02 19° S 21:02:33 55° W 21:07:32 10° NNW
Meteor 1-26 Rocket 4.3 21:09:41 27° SSE 21:12:41 60° E 21:18:19 10° NNE
SL-16 R/B 3.7 21:08:03 10° NW 21:12:47 28° WSW 21:16:43 13° SSW
COSMOS 2428 3.5 21:08:34 10° NNW 21:14:02 45° NE 21:17:37 20° ESE
Cosmos 1763 Rocket 3.4 21:10:53 18° SSW 21:14:56 81° ESE 21:20:13 10° NNE
Cosmos 1470 3.9 21:12:54 10° NNE 21:15:35 22° ENE 21:16:07 21° E
ARIANE 5 R/B 4.1 21:15:19 19° ESE 21:17:22 26° ENE 21:21:04 10° N
ALOS 2 4.3 21:17:23 17° E 21:19:26 23° ENE 21:22:53 10° N
USA 290 3.0 21:18:07 20° SW 21:20:02 48° WNW 21:23:07 10° NNE
Cosmos 1606 Rocket 4.0 21:17:15 18° SSW 21:20:18 56° WNW 21:24:34 10° N
Cosmos 1898 Rocket 4.1 21:16:42 10° NNW 21:21:42 46° ENE 21:24:23 25° ESE
Cosmos 990 Rocket 4.1 21:18:27 10° NNW 21:23:35 66° WSW 21:26:04 31° S
Cosmos 1464 Rocket 4.4 21:18:40 12° SSW 21:24:17 61° WNW 21:30:27 10° N
Meteor 2-2 Rocket 4.3 21:22:13 29° SSE 21:25:08 64° E 21:30:51 10° NNE
Helios 1B rocket 2.7 21:24:22 37° ESE 21:25:08 43° ENE 21:28:30 10° N
ISS -3.8 21:24:02 10° WNW 21:27:24 86° NNE 21:28:15 47° E
Okean 1 3.8 21:25:54 24° SW 21:27:43 47° WNW 21:31:14 10° N
Cosmos 1726 Rocket 3.7 21:25:49 26° SSW 21:27:58 62° WNW 21:32:00 10° N
BREEZE-M DEB (TANK) 2.8 21:27:03 10° W 21:28:12 25° W 21:28:12 25° W
IKONOS-2 4.3 21:31:48 10° NNE 21:35:56 76° ESE 21:37:15 42° S
Cosmos 1536 2.5 21:32:30 10° N 21:36:12 84° E 21:36:59 54° SSE
CSL-04 DEB 4.5 21:36:01 42° ESE 21:36:46 51° ENE 21:40:19 10° N
Cosmos-2242 2.8 21:37:47 39° SSW 21:39:16 84° W 21:43:25 10° N
Cosmos 1092 Rocket 4.0 21:35:54 10° NNW 21:42:05 80° W 21:45:20 30° S
Cosmos 2333 Rocket 4.2 21:39:09 10° WNW 21:42:59 19° W 21:46:30 11° SW
NOSS 0 Rocket 4.3 21:37:10 10° NNW 21:43:16 58° NE 21:46:51 25° SE
KORONAS-FOTON 3.3 21:43:53 69° SE 21:44:10 75° E 21:47:34 10° NNE
Cosmos 2297 Rocket 3.4 21:46:14 23° ESE 21:47:04 23° ESE 21:51:26 10° NE
Cosmos 841 Rocket 4.0 21:47:27 35° SE 21:48:45 42° ESE 21:53:40 10° NE
Meteor 1-14 Rocket 4.3 21:46:51 10° N 21:52:24 68° ENE 21:54:40 36° SSE
Cosmos 2360 Rocket 3.7 21:48:24 10° NW 21:53:01 26° WSW 21:55:44 18° SW
Cosmos 1766 3.7 21:53:26 10° NNW 21:56:27 37° W 21:56:45 36° WSW
Cosmos 1842 2.6 21:56:49 75° ENE 21:56:49 75° ENE 21:59:51 10° NNE
Cosmos 2322 3.6 21:52:12 10° NNW 21:57:56 88° WSW 22:00:18 37° SSE
Cosmos 1975 2.7 21:55:10 10° N 21:58:48 57° ENE 21:59:14 53° ESE
Spot 4 4.1 21:57:15 38° SE 21:58:55 61° ENE 22:03:39 10° N
Meteor 2-6 Rocket 4.3 21:58:28 34° S 22:01:15 81° E 22:07:13 10° NNE
Cosmos 1812 Rocket 4.1 22:02:59 38° ESE 22:03:44 42° E 22:07:55 10° NNE
Cosmos 372 Rocket 4.0 21:58:40 10° NNW 22:03:44 66° WSW 22:05:24 41° S
Cosmos 2221 2.6 22:03:18 49° SE 22:03:57 55° E 22:08:03 10° NNE
Cosmos 2219 Rocket 3.3 22:00:54 10° NW 22:05:53 32° WSW 22:08:05 24° SW
Cosmos 1271 Rocket 2.2 22:06:21 84° SSE 22:06:25 86° E 22:09:49 10° NNE
SL-08 ROCKET BODY 4.5 22:04:42 10° NNW 22:10:53 80° W 22:13:38 36° S
Helios 1A 3.7 22:12:54 10° N 22:16:38 43° WNW 22:18:07 29° WSW
ARGOS Delta rocket 4.2 22:11:45 10° NNE 22:16:54 60° E 22:18:32 41° SSE
Cosmos 2279 Rocket 4.0 22:16:39 33° SSW 22:19:39 84° W 22:25:59 10° N
RESURS DK-1 2.4 22:16:31 10° NW 22:20:26 57° WSW 22:20:45 55° SW
Cosmos 1707 4.3 22:23:33 16° W 22:24:02 17° WNW 22:26:01 10° NNW
Cosmos 2322 Rocket 4.4 22:22:19 10° WNW 22:25:03 14° W 22:27:37 10° SW
Cosmos 1634 Rocket 4.4 22:22:34 25° SW 22:26:09 56° WNW 22:32:17 10° N
Cosmos 858 Rocket 4.5 22:20:59 10° NNW 22:26:11 78° ENE 22:27:57 42° SE
Meteor 1-19 Rocket 4.3 22:24:38 39° S 22:26:53 80° E 22:32:52 10° NNE
Cosmos 1937 Rocket 3.4 22:23:32 10° NNW 22:28:40 74° WSW 22:30:09 46° S
CZ-2C R/B 3.7 22:28:27 10° NNE 22:32:56 76° WNW 22:34:15 46° SSW
SL-16 R/B 3.9 22:28:22 10° NNW 22:33:15 28° NE 22:38:07 10° ESE
GP-B 3.2 22:31:02 10° N 22:35:23 61° E 22:36:11 51° SE
Meteor 2-9 Rocket 4.4 22:34:16 10° NNW 22:39:33 56° W 22:41:24 38° SSW
CZ-2C R/B 3.1 22:39:09 31° SE 22:41:23 51° ENE 22:46:25 10° N
Lacrosse 4 Rocket 2.4 22:42:44 31° E 22:42:44 31° E 22:45:55 10° NE
Cosmos 2237 Rocket 2.2 22:39:10 10° NNW 22:44:53 84° ENE 22:47:09 38° SE
SeaSat 1 3.8 22:42:55 14° ESE 22:46:37 35° NE 22:51:03 10° NNW
USA 234 3.4 22:40:56 10° ENE 22:47:17 50° SE 22:49:36 36° S
Cosmos 2266 Rocket 3.9 22:42:03 10° NNW 22:48:07 78° W 22:50:26 40° S
Cosmos 1980 3.6 22:43:26 10° NNW 22:49:08 86° WSW 22:51:12 41° SSE
Cosmos 1470 4.0 22:46:44 10° NW 22:49:19 24° W 22:49:19 24° W
Intercosmos 24 3.5 22:49:26 10° N 22:53:17 81° E 22:53:29 76° SE
ATLAS 2AS CENTAUR R/B 4.3 22:47:14 10° NW 22:53:20 33° NNE 22:59:24 10° E
ARIANE 5 R/B 3.3 22:52:41 38° SW 22:53:28 42° W 22:57:44 10° NNW
ALOS 2 3.0 22:54:46 43° SW 22:55:29 48° W 22:59:46 10° NNW
Cosmos 2227 Rocket 3.1 22:55:49 30° SE 22:57:06 34° ESE 23:02:09 10° NE
COSMOS 2428 3.5 22:53:01 10° NW 22:58:12 37° WSW 22:59:35 33° SW
Helios 1B rocket 4.2 22:58:19 15° W 22:58:20 15° W 23:00:30 10° NW
Meteor 2-4 Rocket 3.8 23:00:13 42° SSE 23:01:54 62° E 23:07:23 10° NNE
BlueWalker 3 3.4 23:05:21 23° E 23:05:21 23° E 23:06:59 10° ENE
ISS -1.0 23:01:03 10° W 23:01:11 11° W 23:01:11 11° W
Cosmos 2263 Rocket 3.5 23:03:56 23° SE 23:05:13 25° ESE 23:09:43 10° NE
CZ-2C R/B 3.3 23:01:31 10° NNE 23:07:19 78° ESE 23:09:26 41° S
Meteor 1-11 Rocket 4.1 23:02:57 10° NNW 23:08:25 51° W 23:10:10 37° SW
Cosmos 1766 Rocket 3.4 23:05:05 10° N 23:09:25 88° W 23:10:08 62° S
Cosmos 1238 Rocket 2.7 23:14:04 67° S 23:14:37 90° E 23:19:03 10° N
PSLV R/B 4.2 23:11:52 10° N 23:16:01 49° WNW 23:17:16 37° WSW
Cosmos 1655 Rocket 3.9 23:15:22 10° N 23:21:38 86° W 23:24:15 38° S
Cosmos 192 4.2 23:17:58 10° NNW 23:22:56 84° WSW 23:24:20 48° SSE
Cosmos 1814 Rocket 4.1 23:21:59 45° SSE 23:23:22 62° ESE 23:28:33 10° NNE
Alouette 2 Rocket 3.6 23:23:29 10° NNW 23:27:19 72° WSW 23:28:18 52° SSW
Meteor 1-27 Rocket 3.9 23:25:49 37° SW 23:28:10 66° WNW 23:33:53 10° N
Meteor 2-11 Rocket 4.4 23:22:18 10° N 23:28:29 79° E 23:31:13 35° SSE
Meteor 2-10 Rocket 3.6 23:24:25 10° NNW 23:30:00 89° ENE 23:32:12 40° SSE
Cosmos 2297 Rocket 2.4 23:27:59 32° SW 23:30:36 67° WNW 23:36:16 10° NNE
Cosmos 1340 Rocket 4.2 23:27:56 10° N 23:31:22 30° ENE 23:32:47 23° ESE
Cosmos 1151 Rocket 4.1 23:34:52 29° ESE 23:35:59 33° E 23:39:53 10° NNE
BREEZE-M DEB (TANK) 4.5 23:39:18 20° ESE 23:39:18 20° ESE 23:40:59 10° ESE
DELTA 2 DEB (DPAF) 4.1 23:35:25 10° NNE 23:38:52 44° E 23:39:02 44° ESE
SL-14 R/B 3.4 23:39:49 52° SE 23:40:15 56° E 23:43:59 10° NNE
Cosmos 158 Rocket 4.0 23:39:40 42° SSW 23:41:33 87° WNW 23:46:54 10° NNE
CZ-4C R/B 3.1 23:38:19 10° NNE 23:41:42 59° ESE 23:41:47 59° ESE
Cosmos 1244 Rocket 4.4 23:35:41 10° N 23:41:52 82° E 23:44:47 34° SSE
ACS3 Solar Sail 2.0 23:37:37 10° NNE 23:43:32 58° E 23:46:11 33° SSE
Landsat 5 3.3 23:43:41 10° NNE 23:47:46 83° WNW 23:48:28 60° SSW
Cosmos 1500 Rocket 4.1 23:44:55 10° N 23:49:17 55° ENE 23:50:57 34° SE
IDEFIX/ARIANE 42P 4.3 23:45:47 10° NE 23:49:53 23° E 23:52:42 15° SE
